STARLINK-34153, 63967

Orbit data source: Space-Track

STARLINK-34153, 63967 is a payload satellite owned by SpaceX/Seattle (US) in LEO that was launched on Tue, 13 May 2025 UTC via an FALCON 9 launch vehicle from the Air Force Eastern Test Range (AFETR). Payload-class satellites include a variety of spacecraft equipped with specific instruments for various scientific and technological missions. These include communications satellites like Starlink; space stations such as the ISS; scientific satellites like the Hubble; Earth observation satellites from companies like Planet Labs, Umbra, and HawkEye 360; GPS; miniature CubeSats for education and research; and military/defense satellites.

Loading next visibility...
Identifier
63967, 2025-099R
Orbit
LEO
Country
Flag of USUS
Related business
Manufacturer
SpaceX/Seattle
Mission
Operational Commercial Communications
Bus & Motor
STARLINK V2MO, Unknown motor
Mass
575 kg wet, ~530 kg dry
Launch date (UTC)
2025-05-13 (11 months ago)
Launch vehicle
FALCON 9
Launch site
Air Force Eastern Test Range (AFETR)
Object type
Payload
Rocket body
Debris
Shape & HBR
Box + 2 Pan, 17.7 m
Radar Cross Section
36.964 m², Large (>1 m²)

Expand to show TLE details & history
Last TLE update: 23 hours ago

TLE from 23 hours ago
0 STARLINK-34153
1 63967U 25099R   26093.56008015  .00017261  00000-0  63542-3 0  9991
2 63967  43.0059  35.4367 0000981  43.8264 316.2665 15.27574569 51148
Epoch: 2026-04-03T13:26Z
TLE epoch observation values (Epoch: 2026-04-03T13:26:30.924Z)
Latitude
-0.00007°
Longitude
1.91532°
Altitude
482.355 km
Speed
7.626 km/s
True Right ascension
02h 21m 44s
True Declination
0° 00' 00"
Sunlit
Object was in daylight at epoch
Visualization orbit readout
Latitude
Unknown
Longitude
Unknown
Altitude
Unknown
Speed
Unknown
Apparent Right ascension
Unknown
Apparent Declination
Unknown
Sunlit
N/A
Visualization observer readout
Local Sidereal Time
18:05:15
Azimuth
Unknown
Elevation
Unknown
Doppler factor
Unknown
Orbital elements
Apogee altitude
485.683 km
Perigee altitude
484.336 km
Semi-major axis
6,863.147 km
Eccentricity
0.0001
Inclination
43.0059°
RAAN
35.4367°
Arg. of periapsis
43.8264°
True anomaly
316.25873°
Mean anomaly
316.2665°
Eccentric anomaly
316.26261°
Mean motion
3.81732 °/min
Orbital period
94.31 mins
BSTAR
0.00063542
Loading maneuver chart data...
Computing Atmospheric mass density...
Loading historical data...
Loading historical data...
Loading historical data...
Loading historical data...
Loading historical data...
Loading historical data...
Loading historical data...

Documentation

Showing up to 5 results
|